Showing default

OSCAR 24, 15936

Orbit data source: Space-Track

OSCAR 24, 15936 is a payload satellite owned by USN NAVAIR (US) in LEO that was launched on Sat, 03 Aug 1985 UTC via an SCOUT G-1 launch vehicle from the Air Force Western Test Range (AFWTR). Payload-class satellites include a variety of spacecraft equipped with specific instruments for various scientific and technological missions. These include communications satellites like Starlink; space stations such as the ISS; scientific satellites like the Hubble; Earth observation satellites from companies like Planet Labs, Umbra, and HawkEye 360; GPS; miniature CubeSats for education and research; and military/defense satellites.

Loading next visibility...
Identifier
15936, 1985-066B
Orbit
LEO
Country
Flag of USUS
Related business
Manufacturer
RCA/East Windsor
Mission
Spacecraft
Bus & Motor
TRANSIT 5, Unknown motor
Mass
64 kg wet, 64 kg dry
Launch date (UTC)
1985-08-03 (41 years ago)
Launch vehicle
SCOUT G-1
Launch site
Air Force Western Test Range (AFWTR)
Object type
Payload
Rocket body
Debris
Shape & HBR
Unknown
Radar Cross Section
Large (>1 m²)

Expand to show TLE details & history
Last TLE update: 2 days ago

TLE from 2 days ago
0 OSCAR 24
1 15936U 85066B   26171.30179572  .00000074  00000-0  12172-3 0  9997
2 15936  90.1732  95.5293 0166737 275.6040 202.9719 13.35968469991749
Epoch: 2026-06-20T07:14Z
TLE epoch observation values (Epoch: 2026-06-20T07:14:35.150Z)
Latitude
62.23965°
Longitude
-101.30813°
Altitude
1,250.591 km
Speed
7.179 km/s
True Right ascension
18h 23m 25s
True Declination
62° 06' 25"
Sunlit
Object was in daylight at epoch
Visualization orbit readout
Latitude
Unknown
Longitude
Unknown
Altitude
Unknown
Speed
Unknown
Apparent Right ascension
Unknown
Apparent Declination
Unknown
Sunlit
N/A
Visualization observer readout
Local Sidereal Time
23:08:29
Azimuth
Unknown
Elevation
Unknown
Doppler factor
Unknown
Orbital elements
Apogee altitude
1,246.449 km
Perigee altitude
996.359 km
Semi-major axis
7,499.541 km
Eccentricity
0.01667
Inclination
90.1732°
RAAN
95.5293°
Arg. of periapsis
275.604°
True anomaly
202.24028°
Mean anomaly
202.9719°
Eccentric anomaly
202.6047°
Mean motion
3.34188 °/min
Orbital period
107.72 mins
BSTAR
0.00012172
Loading maneuver chart data...
Computing Atmospheric mass density...
Loading historical data...
Loading historical data...
Loading historical data...
Loading historical data...
Loading historical data...
Loading historical data...
Loading historical data...

Documentation

Showing up to 5 results
|